Starlink 4076

operational
NORAD ID: 52667 Int'l Des: 2022-053 Owner: SPXS Country: US Constellation: starlink
LEOCIRCULAR

Starlink 4076について

説明を読み込み中...

リアルタイム位置

3D地球を読み込み中...

次回通過

高度履歴

Altitude vs Time

uPlot chart will show altitude changes over time

軌道要素

1 52667U 22053M 25304.48996280 .00000366 00000-0 41076-4 0 9995
2 52667 53.2185 14.1225 0001483 95.6798 264.4363 15.08840479191541
Epoch: Oct 31, 2025 • Age: 16 hours

現在のステータス

高度 543.9 km
速度 7.60 km/s
衛星直下点 46.99°N, 35.07°E
打ち上げ日 May 18, 2022
運用期間 3.4 years
タイプ internet

技術仕様

分類 Payload
質量 297.00 kg
乾燥質量 275.00 kg
総質量 297.00 kg
長さ 0.20 m
直径 2.80 m
スパン 9.00 m
形状 Box + pan
製造者 SPXS
バスタイプ Starlink
フェーズステータス In Orbit
所有者/国 SPXS/US

大規模コンステレーション

Loading constellations...